This is the latest recevied weather packets stored in our database for station/object KE0FIN. If no packets are shown the sender has not sent any weather packets the latest 10 day(s).
| Time | Temp. | Humidity | Pressure | Rain* | Wind** | Luminosity | Snow |
|---|---|---|---|---|---|---|---|
| 1778053553 | 6.67° C | 99% | 1066.8 hPa | 0 mm | - | 0 W/m² | - |
| 1778053249 | 6.67° C | 98% | 1066.6 hPa | 0 mm | - | 0 W/m² | - |
| 1778052947 | 6.67° C | 98% | 1066.4 hPa | 0 mm | - | 0 W/m² | - |
| 1778052644 | 6.67° C | 98% | 1066.9 hPa | 0 mm | - | 0 W/m² | - |
| 1778052341 | 6.67° C | 98% | 1066.6 hPa | 0 mm | - | 0 W/m² | - |
| 1778052039 | 6.67° C | 97% | 1067 hPa | 0 mm | - | 0 W/m² | - |
| 1778051737 | 6.67° C | 97% | 1067 hPa | 1.27 mm | - | 0 W/m² | - |
| 1778051434 | 6.67° C | 96% | 1067.1 hPa | 1.27 mm | - | 0 W/m² | - |
| 1778051131 | 6.67° C | 96% | 1067.2 hPa | 0 mm | - | 0 W/m² | - |
| 1778050828 | 6.67° C | 96% | 1067.2 hPa | 0 mm | - | 0 W/m² | - |
| 1778050526 | 6.67° C | 95% | 1067.1 hPa | 0 mm | - | 0 W/m² | - |
| 1778050222 | 6.67° C | 95% | 1067.3 hPa | 1.78 mm | - | 0 W/m² | - |
| 1778049919 | 6.67° C | 95% | 1067.6 hPa | 1.78 mm | - | 0 W/m² | - |
| 1778049615 | 7.22° C | 95% | 1067.5 hPa | 1.27 mm | - | 0 W/m² | - |
| 1778049313 | 7.22° C | 94% | 1067.4 hPa | 3.05 mm | - | 0 W/m² | - |
| 1778049010 | 7.22° C | 94% | 1067.2 hPa | 3.05 mm | - | 0 W/m² | - |
| 1778048708 | 7.22° C | 93% | 1067.2 hPa | 1.27 mm | - | 0 W/m² | - |
| 1778048405 | 7.22° C | 93% | 1067.3 hPa | 0 mm | - | 0 W/m² | - |
| 1778048101 | 7.22° C | 92% | 1067.3 hPa | 0 mm | - | 0 W/m² | - |
| 1778047799 | 7.22° C | 92% | 1067.3 hPa | 1.78 mm | - | 0 W/m² | - |
| 1778047497 | 7.22° C | 91% | 1067.2 hPa | 1.78 mm | - | 0 W/m² | - |
| 1778047193 | 7.22° C | 90% | 1067.2 hPa | 0 mm | - | 0 W/m² | - |
| 1778046891 | 7.22° C | 89% | 1067.1 hPa | 1.27 mm | - | 0 W/m² | - |
| 1778046587 | 7.78° C | 88% | 1066.9 hPa | 1.78 mm | - | 0 W/m² | - |
| 1778046284 | 7.78° C | 87% | 1066.4 hPa | 0 mm | - | 0 W/m² | - |
* Rain latest hour (hover to see other rain measurements)
** Current wind speed in m/s (hover to see current wind gust speed)